Back to catalog

STARLINK-34826

AliveCommunicationsVLEO
NORAD 65360·PAYLOAD·🇺🇸 United States

Launched Aug 28, 2025 from Cape Canaveral Space Force Station

Loading…

Next Passes (next 24 hours)

TLE

FreshSource: CelesTrak SupGP

Epoch: Sep 14, 2026, 15:52 UTC

1 65360C 25190K   26257.66159722 -.00054250  00000+0 -16034-2 0  2577
2 65360  53.1608   6.7865 0001290  85.1422 106.5937 15.34405964    14

Track STARLINK-34826 in real time with AllMySat

Download on the App Store